GW3957 Weather Reports


Display with metric or nautical units.
time (UTC)temp
F
wind
direction
speed
MPH
gust
MPH
rain 1hr
in
rain 24hr
in
rain mn
in
humidity
%
barometer
mb
20260507113110 38 241 1.0 2.0 0.00 0.00 0.00 88 1008.7
20260507112608 38 247 2.0 4.0 0.00 0.00 0.00 86 1008.7
20260507112104 38 281 1.0 2.0 0.00 0.00 0.00 89 1008.8
20260507111601 37 104 2.0 2.0 0.00 0.00 0.00 90 1008.4
20260507111058 37 292 2.0 3.0 0.00 0.00 0.00 91 1008.7
20260507110554 37 220 1.0 1.0 0.00 0.00 0.00 93 1008.6
20260507110051 37 222 0.0 0.0 0.00 0.00 0.00 96 1008.6
20260507105548 36 162 0.0 0.0 0.00 0.65 0.65 98 1008.6
20260507105044 35 198 0.0 1.0 0.00 0.65 0.65 97 1008.4
20260507104541 35 230 0.0 4.0 0.00 0.65 0.65 98 1008.6
20260507104037 35 230 0.0 0.0 0.00 0.65 0.65 99 1008.3
20260507103534 35 210 0.0 0.0 0.00 0.65 0.65 99 1008.2
20260507103030 34 229 0.0 4.0 0.00 0.65 0.65 99 1008.4
20260507102527 34 186 0.0 0.0 0.00 0.65 0.65 99 1008.4
20260507102023 34 234 0.0 2.0 0.00 0.65 0.65 99 1008.4
20260507101519 34 223 0.0 0.0 0.00 0.65 0.65 99 1008.2
20260507101015 34 248 0.0 2.0 0.00 0.65 0.65 99 1008.2
20260507100513 34 230 0.0 0.0 0.00 0.65 0.65 99 1008.2
20260507100011 34 245 0.0 2.0 0.00 0.65 0.65 99 1008.3
20260507095508 34 230 0.0 1.0 0.00 0.65 0.65 99 1008.1
20260507095005 34 235 0.0 1.0 0.00 0.65 0.65 99 1008.1
20260507094501 34 274 1.0 2.0 0.00 0.65 0.65 99 1007.9
20260507093958 34 230 0.0 0.0 0.00 0.65 0.65 99 1008.1
20260507093456 34 218 0.0 0.0 0.00 0.65 0.65 99 1008.1
20260507092954 34 216 0.0 0.0 0.00 0.65 0.65 99 1008.2
20260507092450 34 216 0.0 2.0 0.00 0.65 0.65 99 1008.2
20260507091947 35 228 0.0 0.0 0.00 0.65 0.65 99 1008.2
20260507091444 35 230 0.0 0.0 0.00 0.65 0.65 99 1008.2
20260507090939 35 203 0.0 0.0 0.00 0.65 0.65 99 1008.4
20260507090435 35 221 0.0 0.0 0.00 0.65 0.65 99 1008.2
20260507085932 36 224 0.0 0.0 0.00 0.65 0.65 99 1008.3
20260507085429 36 250 0.0 2.0 0.00 0.65 0.65 99 1008.2
20260507084926 37 215 0.0 0.0 0.00 0.65 0.65 98 1008.3
20260507084423 37 164 0.0 2.0 0.00 0.65 0.65 97 1008.3
20260507083920 37 224 0.0 0.0 0.00 0.65 0.65 97 1008.4
20260507083417 38 258 0.0 4.0 0.00 0.65 0.65 98 1008.2
20260507082913 38 275 1.0 2.0 0.00 0.65 0.65 99 1008.3
20260507082409 39 210 1.0 2.0 0.00 0.65 0.65 99 1008.4
20260507081906 39 239 0.0 0.0 0.00 0.65 0.65 99 1008.4
20260507081402 39 225 0.0 1.0 0.00 0.65 0.65 99 1008.3
20260507080859 39 248 0.0 0.0 0.00 0.65 0.65 99 1008.2
20260507080355 39 215 0.0 0.0 0.00 0.65 0.65 99 1008.3
20260507075851 39 228 0.0 0.0 0.00 0.65 0.65 99 1008.2
20260507075347 39 242 1.0 3.0 0.00 0.65 0.65 99 1008.4
20260507074843 40 208 0.0 4.0 0.00 0.65 0.65 99 1008.4
20260507074341 40 219 2.0 3.0 0.00 0.65 0.65 99 1008.8
20260507073838 40 223 0.0 2.0 0.00 0.65 0.65 99 1008.7
20260507073334 40 243 0.0 1.0 0.00 0.65 0.65 99 1008.8
20260507072832 40 243 0.0 0.0 0.00 0.65 0.65 99 1008.7
20260507072329 40 214 0.0 4.0 0.00 0.65 0.65 99 1008.6
20260507071826 40 238 0.0 4.0 0.00 0.65 0.65 99 1008.6
20260507071324 40 219 0.0 7.0 0.00 0.65 0.65 99 1009.0
20260507070820 40 238 0.0 0.0 0.00 0.65 0.65 99 1008.8
20260507070317 40 215 0.0 2.0 0.00 0.65 0.65 99 1008.7
20260507065814 40 231 1.0 2.0 0.00 0.65 0.65 99 1008.6
20260507065310 41 236 0.0 2.0 0.00 0.65 0.65 99 1008.6
20260507064808 41 278 1.0 2.0 0.00 0.65 0.65 99 1008.3
20260507064306 41 230 0.0 1.0 0.00 0.65 0.65 99 1008.6
20260507063804 41 219 0.0 0.0 0.00 0.65 0.65 99 1008.3
20260507063300 41 218 0.0 0.0 0.00 0.65 0.65 99 1008.6
20260507062757 41 244 0.0 0.0 0.00 0.65 0.65 99 1008.3
20260507062254 41 220 0.0 1.0 0.00 0.65 0.65 99 1008.1
20260507061752 41 235 2.0 3.0 0.00 0.65 0.65 99 1007.8
20260507061250 41 246 0.0 1.0 0.00 0.65 0.65 99 1007.7
20260507060748 41 224 0.0 0.0 0.00 0.65 0.65 99 1007.9
20260507060244 41 225 0.0 0.0 0.00 0.65 0.65 99 1008.2
20260507055741 41 223 0.0 0.0 0.00 0.65 0.65 99 1008.1
20260507055236 40 237 0.0 0.0 0.00 0.65 0.65 99 1008.2
20260507054733 40 246 0.0 0.0 0.00 0.65 0.65 99 1008.3
20260507054229 40 218 0.0 0.0 0.00 0.65 0.65 99 1008.2
20260507053727 40 240 0.0 0.0 0.00 0.65 0.65 99 1008.1
20260507053224 40 232 0.0 1.0 0.00 0.65 0.65 99 1008.0
20260507052723 40 222 0.0 0.0 0.00 0.65 0.65 99 1008.2
20260507052219 40 238 0.0 1.0 0.00 0.65 0.65 99 1008.4
20260507051717 40 241 0.0 2.0 0.00 0.65 0.65 99 1008.1
20260507051214 40 211 0.0 2.0 0.00 0.65 0.65 99 1008.1
20260507050710 40 218 0.0 0.0 0.00 0.65 0.65 99 1008.4
20260507050207 40 218 0.0 0.0 0.00 0.65 0.65 99 1008.2
20260507045704 40 227 0.0 0.0 0.00 0.65 0.65 99 1008.3
20260507045200 40 223 0.0 1.0 0.00 0.65 0.65 99 1008.7
20260507044658 40 197 0.0 0.0 0.00 0.65 0.65 99 1008.9
20260507044154 40 237 0.0 1.0 0.00 0.65 0.65 99 1008.6
20260507043650 40 227 0.0 0.0 0.00 0.65 0.65 99 1008.4
20260507043148 40 214 0.0 0.0 0.00 0.65 0.65 99 1008.4
20260507042644 40 211 0.0 0.0 0.00 0.65 0.65 99 1008.6
20260507042139 40 228 0.0 0.0 0.00 0.65 0.65 99 1008.8
20260507041636 40 222 0.0 0.0 0.00 0.65 0.65 99 1008.4
20260507041132 40 221 0.0 0.0 0.00 0.65 0.65 99 1008.4
20260507040630 40 233 0.0 0.0 0.00 0.65 0.65 99 1008.6
20260507040121 40 233 0.0 0.0 0.00 0.65 0.65 99 1008.6
20260507035617 40 218 0.0 0.0 0.00 0.65 0.65 99 1008.4
20260507035113 41 213 0.0 0.0 0.00 0.65 0.65 99 1008.4
20260507034610 41 246 0.0 0.0 0.00 0.65 0.65 99 1008.4
20260507034108 41 235 0.0 0.0 0.00 0.65 0.65 99 1008.3
20260507033606 41 217 0.0 0.0 0.00 0.65 0.65 99 1008.4
20260507033103 41 227 0.0 0.0 0.00 0.65 0.65 99 1008.8
20260507032600 41 227 0.0 2.0 0.00 0.65 0.65 99 1008.4
20260507032055 41 227 0.0 0.0 0.00 0.65 0.65 99 1008.7
20260507031552 41 240 0.0 0.0 0.00 0.65 0.65 99 1008.4
20260507031049 41 218 0.0 0.0 0.00 0.65 0.65 99 1008.8
20260507030545 41 228 1.0 2.0 0.00 0.65 0.65 99 1009.0
20260507030043 41 212 0.0 1.0 0.00 0.65 0.65 99 1008.6
20260507025540 41 237 0.0 0.0 0.00 0.65 0.65 99 1008.6
20260507025032 41 241 0.0 0.0 0.00 0.65 0.65 99 1008.7
20260507024530 41 186 0.0 2.0 0.00 0.65 0.65 99 1008.6
20260507024026 41 209 0.0 2.0 0.00 0.65 0.65 99 1008.7
20260507023521 41 225 0.0 0.0 0.00 0.65 0.65 99 1009.1
20260507023020 41 220 0.0 0.0 0.00 0.65 0.65 99 1009.0
20260507022516 41 237 0.0 0.0 0.00 0.65 0.65 99 1009.0
20260507022011 42 251 0.0 1.0 0.00 0.65 0.65 99 1008.7
20260507021508 42 237 0.0 1.0 0.00 0.65 0.65 99 1009.2
20260507021005 42 211 0.0 4.0 0.00 0.65 0.65 99 1009.4
20260507020503 42 205 0.0 0.0 0.00 0.65 0.65 99 1009.1
20260507015959 42 254 0.0 0.0 0.00 0.65 0.65 99 1009.1
20260507015458 42 207 0.0 2.0 0.00 0.65 0.65 99 1009.0
20260507014954 42 283 1.0 2.0 0.00 0.65 0.65 99 1009.2
20260507014450 42 209 0.0 0.0 0.00 0.65 0.65 99 1009.2
20260507013946 42 228 0.0 0.0 0.00 0.65 0.65 99 1009.3
20260507013443 42 228 0.0 0.0 0.00 0.65 0.65 99 1009.2
20260507012940 42 213 0.0 0.0 0.00 0.65 0.65 99 1009.2
20260507012437 42 207 0.0 2.0 0.00 0.65 0.65 99 1009.1
20260507011933 42 191 0.0 2.0 0.00 0.65 0.65 99 1009.1
20260507011431 42 233 0.0 2.0 0.00 0.65 0.65 99 1009.1
20260507010925 42 227 1.0 2.0 0.00 0.65 0.65 99 1009.0
20260507010421 42 236 0.0 1.0 0.00 0.65 0.65 99 1009.0
20260507005918 42 243 0.0 2.0 0.00 0.65 0.65 99 1008.8
20260507005415 42 221 0.0 0.0 0.00 0.65 0.65 99 1008.8
20260507004911 42 283 1.0 3.0 0.00 0.65 0.65 99 1009.0
20260507004408 42 242 0.0 1.0 0.00 0.65 0.65 99 1008.8
20260507003906 42 214 0.0 1.0 0.00 0.65 0.65 99 1008.6
20260507003401 42 127 2.0 2.0 0.00 0.65 0.65 99 1008.3
20260507002856 42 261 1.0 3.0 0.00 0.65 0.65 99 1008.4
20260507002352 42 250 0.0 2.0 0.00 0.65 0.65 99 1008.3
20260507001850 43 239 2.0 6.0 0.00 0.65 0.65 99 1008.3
20260507001346 43 312 2.0 3.0 0.00 0.65 0.65 99 1008.3
20260507000843 43 206 0.0 1.0 0.00 0.65 0.65 99 1008.4
20260507000338 43 242 1.0 3.0 0.00 0.65 0.65 99 1008.3
20260506235835 43 171 0.0 1.0 0.00 0.65 0.65 99 1008.1
20260506235332 43 250 0.0 4.0 0.00 0.65 0.65 99 1008.0
20260506234828 43 229 0.0 2.0 0.00 0.65 0.65 99 1008.1
20260506234326 43 233 0.0 0.0 0.00 0.65 0.65 99 1008.1
20260506233823 43 256 0.0 4.0 0.00 0.65 0.65 99 1008.2
20260506233319 43 232 0.0 3.0 0.00 0.65 0.65 99 1008.1
20260506232816 43 236 1.0 2.0 0.00 0.65 0.65 99 1008.0
20260506232311 44 295 3.0 3.0 0.00 0.65 0.65 99 1008.0
20260506231809 44 216 0.0 3.0 0.00 0.65 0.65 99 1008.1
20260506231307 44 188 2.0 4.0 0.00 0.65 0.65 99 1007.9
20260506230804 44 234 0.0 6.0 0.00 0.65 0.65 99 1008.0
20260506230300 44 258 1.0 2.0 0.00 0.65 0.65 99 1007.9
20260506225756 44 225 0.0 0.0 0.00 0.65 0.65 99 1007.5
20260506225254 44 196 0.0 3.0 0.00 0.65 0.65 99 1007.4
20260506224745 44 252 0.0 2.0 0.00 0.65 0.65 99 1007.3
20260506224242 44 237 2.0 2.0 0.00 0.65 0.65 99 1007.3
20260506223732 44 1 1.0 3.0 0.00 0.65 0.65 99 1007.5
20260506223228 44 237 1.0 3.0 0.00 0.65 0.65 99 1007.3
20260506222726 44 266 0.0 4.0 0.00 0.65 0.65 99 1007.3
20260506222221 44 233 0.0 2.0 0.00 0.65 0.65 99 1007.2
20260506221719 44 184 0.0 6.0 0.05 0.65 0.65 99 1007.2
20260506221217 45 261 1.0 2.0 0.05 0.65 0.65 99 1007.3
20260506220714 45 278 4.0 6.0 0.00 0.64 0.64 99 1007.3
20260506220208 45 225 0.0 6.0 0.07 0.64 0.64 99 1007.0
20260506215705 45 182 1.0 6.0 0.05 0.63 0.63 99 1007.0
20260506215201 45 232 0.0 3.0 0.05 0.63 0.63 99 1007.0
20260506214658 45 175 2.0 4.0 0.07 0.62 0.62 99 1007.2
20260506214155 46 242 1.0 3.0 0.00 0.61 0.61 99 1006.8
20260506213654 46 214 1.0 3.0 0.00 0.61 0.61 99 1006.8
20260506213150 46 251 2.0 3.0 0.05 0.61 0.61 99 1006.3
20260506212647 46 219 1.0 7.0 0.05 0.61 0.61 99 1006.4
20260506212142 47 247 1.0 3.0 0.00 0.60 0.60 99 1006.3
20260506211638 47 185 1.0 3.0 0.00 0.60 0.60 99 1006.1
20260506211135 47 210 0.0 4.0 0.00 0.60 0.60 99 1006.2
20260506210632 48 274 2.0 6.0 0.00 0.60 0.60 99 1006.0
20260506210128 48 282 1.0 4.0 0.07 0.60 0.60 99 1005.9
20260506205626 49 272 1.0 3.0 0.07 0.60 0.60 99 1005.8
20260506205120 50 253 2.0 2.0 0.00 0.59 0.59 99 1005.8
20260506204619 50 201 0.0 1.0 0.00 0.59 0.59 99 1005.6
20260506204115 50 231 0.0 4.0 0.00 0.59 0.59 99 1005.5
20260506203614 50 182 0.0 1.0 0.00 0.59 0.59 99 1005.5
20260506203110 50 269 1.0 2.0 0.00 0.59 0.59 99 1005.5
20260506202608 51 290 1.0 2.0 0.07 0.59 0.59 99 1005.2
20260506202104 53 336 4.0 4.0 0.00 0.58 0.58 99 1005.1
20260506201601 56 217 0.0 2.0 0.00 0.58 0.58 99 1005.1
20260506201058 56 234 0.0 0.0 0.00 0.58 0.58 99 1004.7
20260506200554 56 210 0.0 0.0 0.00 0.58 0.58 99 1004.6
20260506200051 56 172 1.0 3.0 0.00 0.58 0.58 99 1004.7
20260506195547 56 160 1.0 2.0 0.00 0.58 0.58 99 1004.9
20260506195038 56 185 0.0 1.0 0.00 0.58 0.58 99 1004.9
20260506194536 56 29 2.0 3.0 0.00 0.58 0.58 99 1004.9
20260506194032 56 199 0.0 2.0 0.00 0.58 0.58 99 1005.0
20260506193530 56 47 0.0 2.0 0.00 0.58 0.58 99 1004.7
20260506193027 56 68 1.0 1.0 0.00 0.58 0.58 99 1004.9
20260506192523 56 221 1.0 7.0 0.00 0.58 0.58 99 1004.9
20260506192019 56 242 0.0 2.0 0.00 0.58 0.58 99 1005.1
20260506191516 56 203 0.0 3.0 0.00 0.58 0.58 99 1004.9
20260506191012 56 131 1.0 1.0 0.00 0.58 0.58 99 1004.9
20260506190510 56 169 0.0 2.0 0.00 0.58 0.58 99 1005.1
20260506190007 56 214 0.0 4.0 0.00 0.58 0.58 99 1005.0
20260506185504 56 74 1.0 6.0 0.00 0.58 0.58 99 1005.1
20260506185000 56 74 2.0 3.0 0.00 0.58 0.58 99 1005.2
20260506184457 56 166 1.0 4.0 0.00 0.58 0.58 99 1005.2
20260506183954 56 149 1.0 2.0 0.00 0.58 0.58 99 1005.1
20260506183450 56 264 1.0 3.0 0.00 0.58 0.58 99 1005.3
20260506182947 56 176 1.0 3.0 0.00 0.58 0.58 99 1005.2
20260506182444 56 104 2.0 7.0 0.00 0.58 0.58 99 1005.3
20260506181941 56 35 2.0 8.0 0.00 0.58 0.58 99 1005.2
20260506181439 56 262 0.0 2.0 0.00 0.58 0.58 99 1005.3
20260506180936 56 173 0.0 3.0 0.00 0.58 0.58 99 1005.3
20260506180432 57 96 1.0 1.0 0.00 0.58 0.58 99 1005.3
20260506175929 57 7 2.0 2.0 0.00 0.58 0.58 99 1005.4
20260506175426 57 165 1.0 2.0 0.00 0.58 0.58 99 1005.3
20260506174923 57 0 1.0 2.0 0.05 0.58 0.58 99 1005.2
20260506174421 57 156 1.0 3.0 0.00 0.57 0.57 99 1005.3
20260506173917 57 273 1.0 2.0 0.07 0.57 0.57 99 1005.2
20260506173414 56 154 0.0 2.0 0.07 0.57 0.57 99 1005.4
20260506172911 56 178 1.0 3.0 0.05 0.56 0.56 99 1005.3
20260506172408 56 176 1.0 2.0 0.05 0.56 0.56 99 1005.5
20260506171905 56 249 0.0 0.0 0.07 0.55 0.55 99 1005.4
20260506171402 55 193 0.0 3.0 0.07 0.55 0.55 99 1005.6
20260506170900 55 231 1.0 2.0 0.12 0.55 0.55 99 1005.4
20260506170355 55 186 2.0 4.0 0.12 0.54 0.54 99 1005.7
20260506165849 55 169 1.0 1.0 0.07 0.53 0.53 99 1005.6
20260506165347 55 114 1.0 2.0 0.00 0.52 0.52 99 1005.7
20260506164843 55 275 2.0 3.0 0.00 0.52 0.52 99 1005.7
20260506164340 55 149 0.0 0.0 0.00 0.52 0.52 99 1005.6
20260506163838 55 138 2.0 2.0 0.05 0.52 0.52 99 1005.5
20260506163332 55 115 2.0 3.0 0.00 0.51 0.51 99 1005.6
20260506162827 55 106 1.0 2.0 0.07 0.51 0.51 99 1005.8
20260506162325 55 112 0.0 1.0 0.07 0.51 0.51 99 1005.6
20260506161822 55 147 3.0 3.0 0.05 0.50 0.50 99 1005.6
20260506161320 55 210 2.0 3.0 0.17 0.50 0.50 99 1005.8
20260506160817 55 333 0.0 0.0 0.19 0.49 0.49 99 1006.0
20260506160313 55 106 2.0 2.0 0.14 0.47 0.47 99 1006.0
20260506155812 55 214 0.0 2.0 0.12 0.46 0.46 99 1006.0
20260506155308 55 288 1.0 2.0 0.12 0.45 0.45 99 1005.8
20260506153416 55 259 0.0 1.0 0.19 0.38 0.38 99 1006.0
20260506152913 55 228 2.0 2.0 0.12 0.37 0.37 99 1005.9
20260506152410 55 108 1.0 1.0 0.05 0.35 0.35 99 1005.9
20260506151909 55 226 0.0 2.0 0.12 0.35 0.35 99 1005.9
20260506151405 55 207 0.0 1.0 0.07 0.34 0.34 99 1005.8
20260506150903 55 244 1.0 2.0 0.07 0.33 0.33 99 1005.7
20260506150359 55 200 0.0 1.0 0.07 0.33 0.33 99 1005.9
20260506145856 55 280 1.0 2.0 0.05 0.32 0.32 99 1005.7
20260506145352 55 230 0.0 0.0 0.12 0.32 0.32 99 1005.7
20260506144850 55 85 1.0 3.0 0.07 0.31 0.31 99 1005.7
20260506144346 55 224 0.0 2.0 0.05 0.30 0.30 99 1005.6
20260506143844 55 70 3.0 4.0 0.05 0.30 0.30 99 1005.7
20260506143341 55 214 0.0 3.0 0.07 0.29 0.29 99 1005.6
20260506142839 55 228 0.0 3.0 0.12 0.29 0.29 99 1005.7
20260506142337 55 62 0.0 1.0 0.12 0.28 0.28 99 1005.8
20260506141835 55 228 0.0 3.0 0.07 0.27 0.27 99 1006.1
20260506141333 54 70 0.0 1.0 0.12 0.26 0.26 99 1006.2
20260506140831 54 27 2.0 3.0 0.17 0.26 0.26 99 1006.2
20260506140327 54 199 2.0 2.0 0.12 0.24 0.24 99 1006.3
20260506135824 54 186 2.0 6.0 0.12 0.23 0.23 99 1006.6
20260506135321 54 199 0.0 1.0 0.12 0.22 0.22 99 1006.8
20260506134817 54 80 0.0 2.0 0.07 0.21 0.21 99 1006.6
20260506134313 54 230 0.0 0.0 0.12 0.20 0.20 99 1006.8
20260506133811 54 226 0.0 0.0 0.12 0.19 0.19 99 1006.9
20260506133308 53 136 0.0 0.0 0.12 0.18 0.18 99 1007.0
20260506132804 54 220 0.0 0.0 0.12 0.17 0.17 99 1007.1
20260506132302 54 220 0.0 0.0 0.12 0.16 0.16 99 1007.2
20260506131800 54 222 0.0 0.0 0.12 0.14 0.14 99 1007.2
20260506131255 53 223 0.0 0.0 0.19 0.14 0.14 99 1007.3
20260506130752 53 220 0.0 0.0 0.12 0.12 0.12 99 1007.1
20260506130249 53 219 0.0 0.0 0.12 0.11 0.11 99 1007.2
20260506125747 53 219 0.0 0.0 0.07 0.10 0.10 99 1007.2
20260506125244 53 219 0.0 0.0 0.07 0.09 0.09 99 1006.6
20260506124743 53 219 0.0 0.0 0.07 0.09 0.09 99 1006.6
20260506124240 53 218 0.0 0.0 0.05 0.08 0.08 99 1006.9
20260506123738 53 218 0.0 0.0 0.05 0.08 0.08 99 1007.0
20260506123237 53 218 0.0 0.0 0.00 0.07 0.07 99 1006.6
20260506122732 53 218 0.0 0.0 0.07 0.07 0.07 99 1006.9
20260506122229 53 218 0.0 0.0 0.07 0.07 0.07 99 1006.6
20260506121728 53 218 0.0 0.0 0.00 0.06 0.06 99 1006.9
20260506121225 53 218 0.0 0.0 0.00 0.06 0.06 99 1006.9
20260506120722 53 218 0.0 0.0 0.00 0.06 0.06 99 1007.1
20260506120219 53 218 0.0 0.0 0.05 0.06 0.06 99 1007.2
20260506115717 53 218 0.0 0.0 0.00 0.05 0.05 99 1007.2
20260506115215 52 218 0.0 0.0 0.07 0.05 0.05 99 1007.0
20260506114712 52 218 0.0 0.0 0.07 0.05 0.05 99 1007.2
20260506114210 53 218 0.0 0.0 0.05 0.04 0.04 99 1007.0
20260506113708 53 218 0.0 0.0 0.12 0.04 0.04 99 1007.3